Regional Weather Roundup
Issued by NWS New Orleans/Baton Rouge, LA

Current Version | Previous Version | Text Only | Print | Product List | Glossary On
Versions: 1 2 3 4 5 6 7 8 9 10 11 12 13 14 15 16 17 18 19 20 21 22 23 24 25 26 27 28 29 30 31 32 33 34 35 36 37 38 39 40 41 42 43 44 45 46 47 48 49 50
250
ASUS44 KLIX 031113
RWRLIX
NEW ORLEANS REGIONAL WEATHER ROUNDUP
NATIONAL WEATHER SERVICE NEW ORLEANS LA
500 AM CST SAT DEC 03 2016

NOTE: "FAIR" INDICATES FEW OR NO CLOUDS BELOW 12,000 FEET WITH NO
      SIGNIFICANT WEATHER AND/OR OBSTRUCTIONS TO VISIBILITY.
      SKY/WX - SKY CONDITION AND SIGNIFICANT WEATHER.
      TMP - AIR TEMPERATURE.     DP    - DEWPOINT TEMPERATURE.
      RH  - RELATIVE HUMIDITY.   PRES  - PRESSURE.
      HI  - HEAT INDEX.          WCI   - WIND CHILL INDEX.

*  THESE STATIONS ARE NOT NWS OR FAA STATIONS AND ARE NOT UNDER
   NWS QUALITY CONTROL.

LAZ038-040-048-061>063-065>067-069-031200-
SOUTHEAST LOUISIANA

CITY           SKY/WX    TMP DP  RH WIND       PRES   REMARKS
N.O. AUDUBON   NOT AVBL
N.O. INTL ARPT CLOUDY    57  51  80 E13       30.10F
N.O. LAKEFRONT CLOUDY    57  49  74 E21       30.11S
N.O. DOWNTOWN*   N/A     58  50  75 VRB5      30.12R
RESERVE*       CLOUDY    60  49  66 E14       30.10S
SLIDELL        CLOUDY    56  39  53 E8        30.12F
BATON ROUGE    CLOUDY    55  42  61 NE9       30.11R
BOOTHVILLE     CLOUDY    63  55  75 E13G20    30.10S
BELLE CHASSE   CLOUDY    60  54  80 E9        30.10R
BOGALUSA*      CLOUDY    58  37  46 E7        30.17F
GALLIANO*      CLOUDY    61  55  82 E9        30.07F
NEW ROADS*     CLOUDY    50  45  81 NE8       30.11F
GONZALES*      CLOUDY    59  46  61 E6        30.09S
HAMMOND*       NOT AVBL
HOUMA*         CLOUDY    58  55  89 NE13      30.08F
PORT FOURCHON* CLOUDY    68  59  73 E15       30.05F

$$

MSZ070-080>082-031200-
SOUTHERN MISSISSIPPI

CITY           SKY/WX    TMP DP  RH WIND       PRES   REMARKS
MCCOMB         CLOUDY    51  40  65 NE7       30.16S
GULFPORT       CLOUDY    54  43  66 NE9       30.15R
BILOXI         CLOUDY    54  44  69 NE10      30.14S
PASCAGOULA     CLOUDY    51  43  74 N5        30.17R

$$

COASTAL OBSERVATIONS
LAKE AND NEARSHORE STATIONS

STATION/POSITION TIME  TEMP    WIND        PRES    WAVE
                       AIR SEA DIR/SP/G            HT/PER
                 (UTC) (F)     (DEG/KT/KT) (MB)    (FT/S)
PASCAGOULA       1048   58      60/ 10/ 13 1020.5
WAVELAND YACHT   1048   54 60   60/ 11/ 14 1020.6
GRAND ISLE       1048   66 66   90/ 14/ 20 1018.1
SOUTHWEST PASS   1048          110/ 25/ 29   N/A
NEW CANAL        1048   58 63   70/ 19/ 23 1018.4
SHELL BEACH      1048   61 62   80/ 17/ 20 1019.1

OFFSHORE STATIONS

STATION/POSITION TIME  TEMP    WIND        PRES    WAVE
                       AIR SEA DIR/SP/G            HT/PER
                 (UTC) (F)     (DEG/KT/KT) (MB)    (FT/S)
64 S DAUPHIN ISL 1050   71 76  100/ 25/ 31 1018.4    8/ 7

$$





USA.gov is the U.S. government's official web portal to all federal, state and local government web resources and services.